TimeEST,TemperatureF,Dew PointF,Humidity,Sea Level PressureIn,VisibilityMPH,Wind Direction,Wind SpeedMPH,Gust SpeedMPH,PrecipitationIn,Events,Conditions,WindDirDegrees,DateUTC
12:56 AM,27.0,6.1,41,30.25,10.0,NW,13.8,-,N/A,,Clear,310,2013-02-18 05:56:00
1:56 AM,27.0,5.0,39,30.28,10.0,WNW,12.7,23.0,N/A,,Clear,300,2013-02-18 06:56:00
2:56 AM,27.0,6.1,41,30.30,10.0,NW,13.8,-,N/A,,Clear,310,2013-02-18 07:56:00
3:56 AM,27.0,8.1,45,30.30,10.0,NW,13.8,-,N/A,,Clear,310,2013-02-18 08:56:00
4:56 AM,25.0,9.0,51,30.33,10.0,WNW,9.2,-,N/A,,Clear,300,2013-02-18 09:56:00
5:56 AM,23.0,10.9,60,30.35,10.0,WSW,5.8,-,N/A,,Clear,240,2013-02-18 10:56:00
6:56 AM,21.0,12.0,68,30.37,10.0,West,4.6,-,N/A,,Clear,260,2013-02-18 11:56:00
7:56 AM,26.1,15.1,63,30.40,10.0,SW,4.6,-,N/A,,Clear,230,2013-02-18 12:56:00
8:56 AM,32.0,10.9,42,30.41,10.0,NW,12.7,19.6,N/A,,Clear,320,2013-02-18 13:56:00
9:56 AM,34.0,10.0,37,30.42,10.0,NNW,13.8,-,N/A,,Clear,330,2013-02-18 14:56:00
10:56 AM,37.0,12.0,36,30.42,10.0,NNW,11.5,-,N/A,,Partly Cloudy,330,2013-02-18 15:56:00
11:56 AM,39.0,9.0,29,30.40,10.0,NNW,6.9,-,N/A,,Scattered Clouds,330,2013-02-18 16:56:00
12:00 PM,-9999,-9999,N/A,-9999,-9999.0,North,-9999.0,-,N/A,,Unknown,0,2013-02-18 17:00:00
12:56 PM,39.9,9.0,28,30.37,10.0,Variable,5.8,-,N/A,,Partly Cloudy,0,2013-02-18 17:56:00
1:56 PM,42.1,10.0,27,30.35,10.0,WSW,10.4,-,N/A,,Clear,240,2013-02-18 18:56:00
2:56 PM,44.1,9.0,24,30.34,10.0,Variable,5.8,-,N/A,,Scattered Clouds,0,2013-02-18 19:56:00
3:56 PM,39.9,19.0,43,30.33,10.0,ESE,10.4,-,N/A,,Scattered Clouds,120,2013-02-18 20:56:00
4:56 PM,39.0,21.0,49,30.31,10.0,SE,6.9,-,N/A,,Scattered Clouds,130,2013-02-18 21:56:00
5:56 PM,39.0,21.0,49,30.32,10.0,SSE,9.2,-,N/A,,Scattered Clouds,160,2013-02-18 22:56:00
6:56 PM,37.0,21.9,54,30.33,10.0,SSE,6.9,-,N/A,,Scattered Clouds,160,2013-02-18 23:56:00
7:56 PM,37.0,19.0,48,30.33,10.0,South,4.6,-,N/A,,Scattered Clouds,170,2013-02-19 00:56:00
8:56 PM,37.0,18.0,46,30.32,10.0,South,5.8,-,N/A,,Mostly Cloudy,180,2013-02-19 01:56:00
9:56 PM,37.0,24.1,59,30.32,10.0,South,6.9,-,N/A,,Mostly Cloudy,190,2013-02-19 02:56:00
10:56 PM,37.0,24.1,59,30.30,10.0,South,9.2,-,N/A,,Scattered Clouds,190,2013-02-19 03:56:00
11:56 PM,37.0,25.0,62,30.29,10.0,SSW,9.2,-,N/A,,Scattered Clouds,200,2013-02-19 04:56:00